Location: Recife
(8.0585°S, 34.8848°W)
Time: 11:01:48
(UTC-03:00)

Vanguard 2 Rocket - Pass Details

Date: 16 April 2026
Orbit: 553 x 3286 km, 32.9° (Epoch: 8 May)

Event Time Altitude Azimuth Distance (km) Brightness Sun altitude
Rises 15:10:58 0° 243° (WSW) 7,216 12.1 29.5°
Reaches altitude 10° 15:15:57 10° 247° (WSW) 6,237 12.0 28.3°
Maximum altitude 15:35:14 57° 320° (NW) 3,190 10.5 23.7°
Drops below altitude 10° 15:48:48 10° 36° (NE) 4,534 10.3 20.5°
Sets 15:51:50 0° 41° (NE) 5,216 10.5 19.7°
